Location: Asheville, NC
(35.6000°N, 82.5500°W)
Time: 01:26:13
(UTC-05:00)

Vanguard 2 Rocket - Pass Details

Date: 07 December 2017
Orbit: 556 x 3326 km, 32.9° (Epoch: 20 January)

Event Time Altitude Azimuth Distance (km) Brightness Sun altitude
Rises 21:08:11 0° 239° (WSW) 5,695 11.5 -46.2°
Reaches altitude 10° 21:11:25 10° 236° (SW) 4,993 11.0 -46.9°
Enters shadow 21:24:24 62° 194° (SSW) 3,288 9.4 -49.5°
Maximum altitude 21:27:13 68° 158° (SSE) 3,300 - -50.1°
Drops below altitude 10° 21:47:24 10° 81° (E) 6,183 - -54.1°
Sets 21:51:57 0° 79° (E) 7,056 - -55.1°
